Погода в Нейне

Канада     56°32′43″N   61°41′43″W
темп.,
°C
ветер,
м/с
пор.,
м/с
влажн.,
%
обл.,
%
осадки,
мм/ч
давл.,
гПа
погр.,
м
24 июня, чт
чт2400:00+6св118058 0.0 101213
03:00+5ю118265 0.0 101210
06:00+7зюз23704 0.0 101378
09:00+11зюз57450 0.0 1014803
12:00+16юз59385 0.0 10111606
15:00+19юз10133481 0.0 10091962
18:00+12ююз101579100 0.6 1009710
21:00+13юз81475100 0.8 1009484
25 июня, пт
пт2500:00+13зюз5978100 0.0 1011224
03:00+13юз3584100 0.0 101380
06:00+12ююз2289100 0.0 101314
09:00+15юв2380100 0.0 1012295
12:00+16ююз7137998 0.6 1009902
15:00+21зюз11145461 1.2 10081411
18:00+19зюз7953100 0.0 1010936
21:00+15юз5967100 0.0 1012197
26 июня, сб
сб2600:00+14ююз3575100 0.0 1012107
03:00+13ююз338214 0.0 101238
06:00+13юз35915 0.0 1012118
09:00+17зюз8117058 0.0 1012682
12:00+17з696915 0.0 1011625
15:00+20зюз9125625 0.3 10111358
18:00+21зюз5842100 0.0 1010519
21:00+19ююз4653100 0.0 100991
27 июня, вс
вс2700:00+15ссз1281100 0.4 100916
03:00+12св2280100 0.6 100834
06:00+12ссв1291100 1.9 100650
09:00+10в3398100 6.9 1004118
12:00+7в3396100 2.3 100382
15:00+7юв2296100 4.8 1004107
18:00+7ю2198100 4.8 100574
21:00+6ююв2396100 5.2 1007120
28 июня, пн
пн2800:00+4ююв3395100 1.0 1009135
03:00+4юв2294100 2.2 1009179
06:00+4юв1292100 0.6 1010190
09:00+4в1188100 0.8 1012197
12:00+5юв228475 0.1 1014258
15:00+9юв11696 0.1 1014555
18:00+11юв21625 0.0 1015449
21:00+8ююв23715 0.0 1016122